Aérodrome :
LOGIN :

S'inscrire | Disclaimer

   EN    FR    IT 

 










Légende :    VFR   VFR Marginal   IFR   IFR Intensif   IFR Très Intensif
Visi : 
Plafond : 
>= 8 km
>= 3000ft
5 à 8 km
1000 à 3000 ft
1500m à 5 km
500 à 1000 ft
800 à 1500m
200 à 500 ft
< 800m
< 200 ft
Symboles :   Orages  Brouillard  Fortes neiges  Fortes précipitations  Vent > 20 kt
SIGMETs :   Divers  Orages  Givrage  Turbulence  Onde Orograph.  Cendres Volcan.







- Altitude de l'aérodrome : 1708 ft
- Code IATA : SJJ


LQSA - Sarajevo

DERNIER METAR :
  • 191830Z 13005KT 100V170 CAVOK 24/10 Q1015 NOSIG

METARs EXPIRÉS :
  • 191800Z 10003KT 060V130 CAVOK 26/10 Q1015 NOSIG
  • 191730Z VRB02KT CAVOK 28/10 Q1014 NOSIG
  • 191700Z 27006KT 250V330 CAVOK 31/05 Q1014 NOSIG
  • 191630Z 26007KT 230V300 CAVOK 32/04 Q1014 NOSIG
  • 191600Z 28007KT 250V310 9999 FEW055 33/03 Q1014 NOSIG

TAF TAF LQSA
Valide du 19 à 18h jusqu'au 20 à 18h UTC


191700Z 1918/2018 27005KT CAVOK TX29/1918Z TN14/2004Z
BECMG 2007/2010 RA
TEMPO 2010/2018 33015KT TSRA SCT010 FEW030CB BKN045
Pas de NOTAMs connus pour ce terrain.



MET'MAP, la Météo Aéronautique d'un coup d'oeil ! - Copyright ORBIFLY Décembre 2007 - Disclaimer

ORBIFLY MET'MAP TEAM :

Programmation & Développement : Alexandra Zaïnal
Conception & Développement : Baudouin d'Aumeries
Co-Programmation & Développement : Marc-Olivier Méhu
Soutien technique & logistique : Manuel Goepfert

Contact : metmap@orbifly.com




SOURCES & CREDITS :

   NOAA